Location: Twentynine Palms Airport
(34.1316°N, 115.9458°W)
Time: 12:56:29
(UTC-07:00)

Amateur Radio Satellites - All Passes

Search period start: 23 October 2014 12:26
Search period end: 24 October 2014 12:26
Location: Twentynine Palms Airport, 34.1316°N, 115.9458°W

Satellite Date Start Highest point End Downlink Frequencies (MHz)
Time Altitude Azimuth
ISS 23 Oct 12:29:07 12:32:21 51° 133° (SE) 12:35:35 145.800 FM
PCSat 23 Oct 12:36:11 12:40:13 21° 53° (NE) 12:44:14 145.825 MHz
JAS-1B 23 Oct 12:43:56 12:48:42 25° 68° (ENE) 12:53:13 435.800 - 435.900 CW/SSB
Oscar 16 23 Oct 13:00:47 13:05:36 41° 72° (ENE) 13:10:26 437.025 USB, Beacon 2401.1428
KITSAT 1 23 Oct 13:08:12 13:16:02 53° 302° (WNW) 13:23:55 435.175 FM
AO-Echo 23 Oct 13:09:11 13:12:55 23° 68° (ENE) 13:16:45 ?
Uribyol 2 23 Oct 13:18:22 13:22:34 25° 68° (ENE) 13:26:47 436.500 FM
ITAMSAT 1 23 Oct 13:23:54 13:28:11 27° 68° (ENE) 13:32:30 435.822 SSB
Gurwin Techsat 1B 23 Oct 13:35:57 13:39:24 18° 66° (ENE) 13:42:52 435.225 FM
TMSAT-1 23 Oct 13:48:19 13:51:38 17° 65° (ENE) 13:54:58 436.925 FM
UOSAT-12 23 Oct 13:49:14 13:52:35 20° 109° (ESE) 13:56:00 437.025 FM, 437.400 FM
Oscar 19 23 Oct 13:54:13 13:59:17 58° 259° (W) 14:04:22 437.125 CW, 437.150 USB
Sapphire 23 Oct 13:55:45 14:01:12 87° 245° (WSW) 14:06:37 437.095 MHz 1200 baud AX-25 AFSK
SO-50 23 Oct 13:57:15 14:01:06 28° 307° (NW) 14:05:03 436.795 FM
ISS 23 Oct 14:07:04 14:09:15 16° 329° (NNW) 14:11:26 145.800 FM
AO-27 23 Oct 14:08:03 14:13:14 76° 75° (ENE) 14:18:28 436.795 MHz FM
PCSat 23 Oct 14:18:40 14:23:52 49° 249° (WSW) 14:29:02 145.825 MHz
JAS-1B 23 Oct 14:33:33 14:39:13 36° 261° (W) 14:44:28 435.800 - 435.900 CW/SSB
Oscar 16 23 Oct 14:41:26 14:45:04 19° 265° (W) 14:48:42 437.025 USB, Beacon 2401.1428
AO-Echo 23 Oct 14:47:09 14:51:27 32° 263° (W) 14:55:54 ?
Uribyol 2 23 Oct 14:57:11 15:01:50 33° 262° (W) 15:06:31 436.500 FM
ITAMSAT 1 23 Oct 15:02:57 15:07:30 31° 263° (W) 15:12:06 435.822 SSB
KITSAT 1 23 Oct 15:10:54 15:13:29 12° 325° (NW) 15:16:04 435.175 FM
Gurwin Techsat 1B 23 Oct 15:13:49 15:18:56 49° 260° (W) 15:24:05 435.225 FM
AO-7 23 Oct 15:18:28 15:26:00 41° 64° (ENE) 15:33:33 29.400 - 29.500 MHz
TMSAT-1 23 Oct 15:25:57 15:31:05 52° 260° (W) 15:36:15 436.925 FM
UOSAT-12 23 Oct 15:28:11 15:32:26 36° 305° (NW) 15:36:48 437.025 FM, 437.400 FM
JAS-2 23 Oct 16:01:12 16:03:46 13° 58° (ENE) 16:06:26 435.800 - 435.900 CW/SSB, 435.910 FM
Uosat F 23 Oct 16:29:55 16:34:56 85° 257° (WSW) 16:40:00 435.120 FM
Hamsat 23 Oct 16:59:20 17:02:25 20° 70° (ENE) 17:05:29 145.90 MHz
Saudisat 1A 23 Oct 17:10:35 17:15:01 85° 61° (ENE) 17:19:26 436.775 MHz
AO-7 23 Oct 17:11:08 17:18:41 39° 260° (W) 17:26:17 29.400 - 29.500 MHz
JAS-2 23 Oct 17:42:00 17:47:42 84° 257° (WSW) 17:54:12 435.800 - 435.900 CW/SSB, 435.910 FM
OPAL 23 Oct 18:10:38 18:15:36 79° 286° (WNW) 18:20:32 ?
STRAND 1 23 Oct 18:16:51 18:18:36 12° 92° (E) 18:20:20 ?
Hamsat 23 Oct 18:34:35 18:38:10 27° 263° (W) 18:41:44 145.90 MHz
ISS 23 Oct 19:01:34 19:03:35 15° 30° (NNE) 19:05:35 145.800 FM
SO-67 23 Oct 19:05:51 19:09:16 81° 78° (ENE) 19:12:43 435.3500 MHz FM
HO-68 23 Oct 19:22:20 19:26:37 17° 59° (ENE) 19:30:54 435.675 MHz FM
STRAND 1 23 Oct 19:53:03 19:58:10 65° 286° (WNW) 20:03:14 ?
ISS 23 Oct 20:37:15 20:40:33 60° 226° (SW) 20:43:49 145.800 FM
Oscar 11 23 Oct 20:46:09 20:48:55 17° 68° (ENE) 20:51:41 145.825 FM, Beacon 2401.500 USB
SO-50 23 Oct 20:53:16 20:55:04 12° 45° (NE) 20:56:52 436.795 FM
KITSAT 1 23 Oct 21:05:31 21:13:04 41° 55° (NE) 21:20:33 435.175 FM
HO-68 23 Oct 21:06:17 21:13:26 81° 255° (WSW) 21:20:39 435.675 MHz FM
RS-15 23 Oct 21:19:27 21:29:30 42° 108° (ESE) 21:39:22 29.354 - 29.394 USB, Beacon 29.352 USB
ZACube-1 23 Oct 21:31:10 21:34:50 24° 70° (ENE) 21:38:28 437.345 MHz
UKube-1 23 Oct 21:37:46 21:42:07 81° 76° (ENE) 21:46:29 145.840 MHz, 145.915 MHz
FUNcube-1 23 Oct 22:15:06 22:19:42 76° 76° (ENE) 22:24:15 145.950 - 145.970 MHz USB
Oscar 11 23 Oct 22:20:51 22:24:47 34° 262° (W) 22:28:45 145.825 FM, Beacon 2401.500 USB
SO-50 23 Oct 22:31:22 22:36:14 87° 243° (WSW) 22:41:08 436.795 FM
KITSAT 1 23 Oct 23:01:01 23:08:20 40° 252° (WSW) 23:15:39 435.175 FM
HO-68 23 Oct 23:01:22 23:01:59 10° 270° (W) 23:02:37 435.675 MHz FM
ZACube-1 23 Oct 23:07:09 23:11:03 27° 263° (W) 23:14:57 437.345 MHz
RS-15 23 Oct 23:31:00 23:41:32 49° 307° (NW) 23:52:03 29.354 - 29.394 USB, Beacon 29.352 USB
Oscar 10/S400 23 Oct 23:44:48 00:56:17 37° 232° (SW) 05:51:07 145.825 - 145.975 CW/USB, Beacon 145.810 USB
MaSat-1 24 Oct 00:00:06 00:04:20 61° 294° (WNW) 00:08:12 437.345 MHz
UOSAT-12 24 Oct 00:00:54 00:05:36 68° 60° (ENE) 00:10:11 437.025 FM, 437.400 FM
Oscar 16 24 Oct 01:17:06 01:20:45 20° 95° (E) 01:24:23 437.025 USB, Beacon 2401.1428
AO-Echo 24 Oct 01:22:41 01:23:19 10° 90° (E) 01:23:57 ?
Uribyol 2 24 Oct 01:36:54 01:38:26 11° 92° (E) 01:39:59 436.500 FM
ITAMSAT 1 24 Oct 01:42:12 01:44:16 12° 92° (E) 01:46:20 435.822 SSB
UOSAT-12 24 Oct 01:44:46 01:45:05 10° 254° (WSW) 01:45:24 437.025 FM, 437.400 FM
RS-15 24 Oct 01:52:05 01:57:31 15° 336° (NNW) 02:03:00 29.354 - 29.394 USB, Beacon 29.352 USB
Oscar 19 24 Oct 02:09:32 02:14:38 69° 102° (ESE) 02:19:43 437.125 CW, 437.150 USB
JAS-1B 24 Oct 02:18:35 02:25:25 69° 103° (ESE) 02:33:38 435.800 - 435.900 CW/SSB
AO-27 24 Oct 02:25:14 02:30:04 37° 98° (E) 02:34:51 436.795 MHz FM
Sapphire 24 Oct 02:52:07 02:56:03 21° 106° (ESE) 02:59:59 437.095 MHz 1200 baud AX-25 AFSK
Oscar 16 24 Oct 02:55:27 03:00:12 40° 288° (WNW) 03:04:56 437.025 USB, Beacon 2401.1428
AO-Echo 24 Oct 02:57:13 03:02:32 77° 284° (WNW) 03:07:49 ?
Uribyol 2 24 Oct 03:13:08 03:18:19 68° 285° (WNW) 03:23:27 436.500 FM
PCSat 24 Oct 03:13:35 03:18:30 37° 109° (ESE) 03:23:27 145.825 MHz
ITAMSAT 1 24 Oct 03:18:57 03:24:08 64° 286° (WNW) 03:29:15 435.822 SSB
AO-7 24 Oct 03:26:28 03:30:38 15° 92° (E) 03:34:48 29.400 - 29.500 MHz
Gurwin Techsat 1B 24 Oct 03:33:38 03:38:59 89° 285° (WNW) 03:44:17 435.225 FM
TMSAT-1 24 Oct 03:45:26 03:50:46 86° 103° (ESE) 03:56:04 436.925 FM
OPAL 24 Oct 03:46:21 03:48:37 13° 62° (ENE) 03:50:53 ?
Oscar 19 24 Oct 03:51:23 03:53:21 12° 297° (WNW) 03:55:18 437.125 CW, 437.150 USB
AO-27 24 Oct 04:05:18 04:09:18 23° 293° (WNW) 04:13:16 436.795 MHz FM
JAS-1B 24 Oct 04:11:02 04:15:37 20° 295° (WNW) 04:20:43 435.800 - 435.900 CW/SSB
RS-15 24 Oct 04:13:24 04:17:14 12° 16° (NNE) 04:21:06 29.354 - 29.394 USB, Beacon 29.352 USB
Sapphire 24 Oct 04:33:58 04:39:06 43° 300° (WNW) 04:44:16 437.095 MHz 1200 baud AX-25 AFSK
Uosat F 24 Oct 04:41:39 04:46:24 40° 99° (E) 04:51:06 435.120 FM
JAS-2 24 Oct 04:55:49 05:01:27 21° 92° (E) 05:07:00 435.800 - 435.900 CW/SSB, 435.910 FM
PCSat 24 Oct 04:57:29 05:01:57 26° 305° (NW) 05:06:27 145.825 MHz
AO-7 24 Oct 05:15:52 05:24:14 90° 107° (ESE) 05:32:36 29.400 - 29.500 MHz
OPAL 24 Oct 05:21:46 05:26:54 68° 256° (WSW) 05:32:01 ?
STRAND 1 24 Oct 05:29:30 05:31:40 13° 63° (ENE) 05:33:50 ?
Uosat F 24 Oct 06:21:15 06:24:51 20° 293° (WNW) 06:28:26 435.120 FM
Hamsat 24 Oct 06:23:03 06:27:14 67° 101° (E) 06:31:26 145.90 MHz
RS-15 24 Oct 06:24:11 06:34:20 37° 48° (NE) 06:44:47 29.354 - 29.394 USB, Beacon 29.352 USB
JAS-2 24 Oct 06:39:06 06:46:52 70° 286° (WNW) 06:54:33 435.800 - 435.900 CW/SSB, 435.910 FM
PANSAT 24 Oct 06:43:04 06:45:19 15° 160° (SSE) 06:47:34 not established
STRAND 1 24 Oct 07:05:09 07:10:14 67° 258° (WSW) 07:15:21 ?
AO-7 24 Oct 07:10:52 07:15:54 18° 305° (NW) 07:20:58 29.400 - 29.500 MHz
Saudisat 1A 24 Oct 07:13:19 07:17:34 54° 115° (ESE) 07:21:52 436.775 MHz
SO-67 24 Oct 08:05:35 08:08:55 46° 284° (WNW) 08:12:13 435.3500 MHz FM
PANSAT 24 Oct 08:21:35 08:24:59 30° 172° (S) 08:28:23 not established
JAS-2 24 Oct 08:27:36 08:30:32 13° 303° (WNW) 08:33:28 435.800 - 435.900 CW/SSB, 435.910 FM
RS-15 24 Oct 08:36:12 08:47:11 61° 248° (WSW) 08:58:40 29.354 - 29.394 USB, Beacon 29.352 USB
HO-68 24 Oct 08:39:14 08:44:49 24° 95° (E) 08:50:21 435.675 MHz FM
Saudisat 1A 24 Oct 08:54:59 08:57:27 15° 312° (NW) 08:59:55 436.775 MHz
UKube-1 24 Oct 09:30:43 09:33:45 18° 95° (E) 09:36:46 145.840 MHz, 145.915 MHz
MaSat-1 24 Oct 09:50:08 09:52:38 68° 249° (WSW) 09:54:59 437.345 MHz
Oscar 10/S400 24 Oct 09:56:54 10:27:40 22° 157° (SSE) 10:42:16 145.825 - 145.975 CW/USB, Beacon 145.810 USB
PANSAT 24 Oct 10:01:19 10:04:47 33° 185° (S) 10:08:15 not established
FUNcube-1 24 Oct 10:09:16 10:12:11 18° 94° (E) 10:15:04 145.950 - 145.970 MHz USB
Oscar 11 24 Oct 10:11:44 10:15:57 54° 100° (E) 10:20:09 145.825 FM, Beacon 2401.500 USB
HO-68 24 Oct 10:25:48 10:32:45 55° 290° (WNW) 10:39:42 435.675 MHz FM
ZACube-1 24 Oct 10:59:33 11:03:48 80° 102° (ESE) 11:07:58 437.345 MHz
UKube-1 24 Oct 11:06:05 11:09:57 31° 289° (WNW) 11:13:47 145.840 MHz, 145.915 MHz
KITSAT 1 24 Oct 11:29:21 11:36:55 46° 109° (ESE) 11:44:30 435.175 FM
ISS 24 Oct 11:40:31 11:43:18 25° 130° (SE) 11:46:06 145.800 FM
PANSAT 24 Oct 11:41:47 11:44:30 19° 197° (SSW) 11:47:13 not established
FUNcube-1 24 Oct 11:44:56 11:48:34 28° 289° (WNW) 11:52:09 145.950 - 145.970 MHz USB
Oscar 11 24 Oct 11:50:26 11:51:37 11° 294° (WNW) 11:52:49 145.825 FM, Beacon 2401.500 USB
PCSat 24 Oct 12:06:16 12:09:26 15° 50° (NE) 12:12:34 145.825 MHz
